Year,Month,Day,Hour,Minute,Value (Times are PST for insolation in W/m^2)
2009,03,02,00,00,0.00
2009,03,02,00,01,0.00
2009,03,02,00,02,0.00
2009,03,02,00,03,0.00
2009,03,02,00,04,0.00
2009,03,02,00,05,0.00
2009,03,02,00,06,0.00
2009,03,02,00,07,0.00
2009,03,02,00,08,0.00
2009,03,02,00,09,0.00
2009,03,02,00,10,0.00
2009,03,02,00,11,0.00
2009,03,02,00,12,0.00
2009,03,02,00,13,0.00
2009,03,02,00,14,0.00
2009,03,02,00,15,0.00
2009,03,02,00,16,0.00
2009,03,02,00,17,0.00
2009,03,02,00,18,0.00
2009,03,02,00,19,0.00
2009,03,02,00,20,0.00
2009,03,02,00,21,0.00
2009,03,02,00,22,0.00
2009,03,02,00,23,0.00
2009,03,02,00,24,0.00
2009,03,02,00,25,0.00
2009,03,02,00,26,0.00
2009,03,02,00,27,0.00
2009,03,02,00,28,0.00
2009,03,02,00,29,0.00
2009,03,02,00,30,0.00
2009,03,02,00,31,0.00
2009,03,02,00,32,0.00
2009,03,02,00,33,0.00
2009,03,02,00,34,0.00
2009,03,02,00,35,0.00
2009,03,02,00,36,0.00
2009,03,02,00,37,0.00
2009,03,02,00,38,0.00
2009,03,02,00,39,0.00
2009,03,02,00,40,0.00
2009,03,02,00,41,0.00
2009,03,02,00,42,0.00
2009,03,02,00,43,0.00
2009,03,02,00,44,0.00
2009,03,02,00,45,0.00
2009,03,02,00,46,0.00
2009,03,02,00,47,0.00
2009,03,02,00,48,0.00
2009,03,02,00,49,0.00
2009,03,02,00,50,0.00
2009,03,02,00,51,0.00
2009,03,02,00,52,0.00
2009,03,02,00,53,0.00
2009,03,02,00,54,0.00
2009,03,02,00,55,0.00
2009,03,02,00,56,0.00
2009,03,02,00,57,0.00
2009,03,02,00,58,0.00
2009,03,02,00,59,0.00
2009,03,02,01,00,0.00
2009,03,02,01,01,0.00
2009,03,02,01,02,0.00
2009,03,02,01,03,0.00
2009,03,02,01,04,0.00
2009,03,02,01,05,0.00
2009,03,02,01,06,0.00
2009,03,02,01,07,0.00
2009,03,02,01,08,0.00
2009,03,02,01,09,0.00
2009,03,02,01,10,0.00
2009,03,02,01,11,0.00
2009,03,02,01,12,0.00
2009,03,02,01,13,0.00
2009,03,02,01,14,0.00
2009,03,02,01,15,0.00
2009,03,02,01,16,0.00
2009,03,02,01,17,0.00
2009,03,02,01,18,0.00
2009,03,02,01,19,0.00
2009,03,02,01,20,0.00
2009,03,02,01,21,0.00
2009,03,02,01,22,0.00
2009,03,02,01,23,0.00
2009,03,02,01,24,0.00
2009,03,02,01,25,0.00
2009,03,02,01,26,0.00
2009,03,02,01,27,0.00
2009,03,02,01,28,0.00
2009,03,02,01,29,0.00
2009,03,02,01,30,0.00
2009,03,02,01,31,0.00
2009,03,02,01,32,0.00
2009,03,02,01,33,0.00
2009,03,02,01,34,0.00
2009,03,02,01,35,0.00
2009,03,02,01,36,0.00
2009,03,02,01,37,0.00
2009,03,02,01,38,0.00
2009,03,02,01,39,0.00
2009,03,02,01,40,0.00
2009,03,02,01,41,0.00
2009,03,02,01,42,0.00
2009,03,02,01,43,0.00
2009,03,02,01,44,0.00
2009,03,02,01,45,0.00
2009,03,02,01,46,0.00
2009,03,02,01,47,0.00
2009,03,02,01,48,0.00
2009,03,02,01,49,0.00
2009,03,02,01,50,0.00
2009,03,02,01,51,0.00
2009,03,02,01,52,0.00
2009,03,02,01,53,0.00
2009,03,02,01,54,0.00
2009,03,02,01,55,0.00
2009,03,02,01,56,0.00
2009,03,02,01,57,0.00
2009,03,02,01,58,0.00
2009,03,02,01,59,0.00
2009,03,02,02,00,0.00
2009,03,02,02,01,0.00
2009,03,02,02,02,0.00
2009,03,02,02,03,0.00
2009,03,02,02,04,0.00
2009,03,02,02,05,0.00
2009,03,02,02,06,0.00
2009,03,02,02,07,0.00
2009,03,02,02,08,0.00
2009,03,02,02,09,0.00
2009,03,02,02,10,0.00
2009,03,02,02,11,0.00
2009,03,02,02,12,0.00
2009,03,02,02,13,0.00
2009,03,02,02,14,0.00
2009,03,02,02,15,0.00
2009,03,02,02,16,0.00
2009,03,02,02,17,0.00
2009,03,02,02,18,0.00
2009,03,02,02,19,0.00
2009,03,02,02,20,0.00
2009,03,02,02,21,0.00
2009,03,02,02,22,0.00
2009,03,02,02,23,0.00
2009,03,02,02,24,0.00
2009,03,02,02,25,0.00
2009,03,02,02,26,0.00
2009,03,02,02,27,0.00
2009,03,02,02,28,0.00
2009,03,02,02,29,0.00
2009,03,02,02,30,0.00
2009,03,02,02,31,0.00
2009,03,02,02,32,0.00
2009,03,02,02,33,0.00
2009,03,02,02,34,0.00
2009,03,02,02,35,0.00
2009,03,02,02,36,0.00
2009,03,02,02,37,0.00
2009,03,02,02,38,0.00
2009,03,02,02,39,0.00
2009,03,02,02,40,0.00
2009,03,02,02,41,0.00
2009,03,02,02,42,0.00
2009,03,02,02,43,0.00
2009,03,02,02,44,0.00
2009,03,02,02,45,0.00
2009,03,02,02,46,0.00
2009,03,02,02,47,0.00
2009,03,02,02,48,0.00
2009,03,02,02,49,0.00
2009,03,02,02,50,0.00
2009,03,02,02,51,0.00
2009,03,02,02,52,0.00
2009,03,02,02,53,0.00
2009,03,02,02,54,0.00
2009,03,02,02,55,0.00
2009,03,02,02,56,0.00
2009,03,02,02,57,0.00
2009,03,02,02,58,0.00
2009,03,02,02,59,0.00
2009,03,02,03,00,0.00
2009,03,02,03,01,0.00
2009,03,02,03,02,0.00
2009,03,02,03,03,0.00
2009,03,02,03,04,0.00
2009,03,02,03,05,0.00
2009,03,02,03,06,0.00
2009,03,02,03,07,0.00
2009,03,02,03,08,0.00
2009,03,02,03,09,0.00
2009,03,02,03,10,0.00
2009,03,02,03,11,0.00
2009,03,02,03,12,0.00
2009,03,02,03,13,0.00
2009,03,02,03,14,0.00
2009,03,02,03,15,0.00
2009,03,02,03,16,0.00
2009,03,02,03,17,0.00
2009,03,02,03,18,0.00
2009,03,02,03,19,0.00
2009,03,02,03,20,0.00
2009,03,02,03,21,0.00
2009,03,02,03,22,0.00
2009,03,02,03,23,0.00
2009,03,02,03,24,0.00
2009,03,02,03,25,0.00
2009,03,02,03,26,0.00
2009,03,02,03,27,0.00
2009,03,02,03,28,0.00
2009,03,02,03,29,0.00
2009,03,02,03,30,0.00
2009,03,02,03,31,0.00
2009,03,02,03,32,0.00
2009,03,02,03,33,0.00
2009,03,02,03,34,0.00
2009,03,02,03,35,0.00
2009,03,02,03,36,0.00
2009,03,02,03,37,0.00
2009,03,02,03,38,0.00
2009,03,02,03,39,0.00
2009,03,02,03,40,0.00
2009,03,02,03,41,0.00
2009,03,02,03,42,0.00
2009,03,02,03,43,0.00
2009,03,02,03,44,0.00
2009,03,02,03,45,0.00
2009,03,02,03,46,0.00
2009,03,02,03,47,0.00
2009,03,02,03,48,0.00
2009,03,02,03,49,0.00
2009,03,02,03,50,0.00
2009,03,02,03,51,0.00
2009,03,02,03,52,0.00
2009,03,02,03,53,0.00
2009,03,02,03,54,0.00
2009,03,02,03,55,0.00
2009,03,02,03,56,0.00
2009,03,02,03,57,0.00
2009,03,02,03,58,0.00
2009,03,02,03,59,0.00
2009,03,02,04,00,0.00
2009,03,02,04,01,0.00
2009,03,02,04,02,0.00
2009,03,02,04,03,0.00
2009,03,02,04,04,0.00
2009,03,02,04,05,0.00
2009,03,02,04,06,0.00
2009,03,02,04,07,0.00
2009,03,02,04,08,0.00
2009,03,02,04,09,0.00
2009,03,02,04,10,0.00
2009,03,02,04,11,0.00
2009,03,02,04,12,0.00
2009,03,02,04,13,0.00
2009,03,02,04,14,0.00
2009,03,02,04,15,0.00
2009,03,02,04,16,0.00
2009,03,02,04,17,0.00
2009,03,02,04,18,0.00
2009,03,02,04,19,0.00
2009,03,02,04,20,0.00
2009,03,02,04,21,0.00
2009,03,02,04,22,0.00
2009,03,02,04,23,0.00
2009,03,02,04,24,0.00
2009,03,02,04,25,0.00
2009,03,02,04,26,0.00
2009,03,02,04,27,0.00
2009,03,02,04,28,0.00
2009,03,02,04,29,0.00
2009,03,02,04,30,0.00
2009,03,02,04,31,0.00
2009,03,02,04,32,0.00
2009,03,02,04,33,0.00
2009,03,02,04,34,0.00
2009,03,02,04,35,0.00
2009,03,02,04,36,0.00
2009,03,02,04,37,0.00
2009,03,02,04,38,0.00
2009,03,02,04,39,0.00
2009,03,02,04,40,0.00
2009,03,02,04,41,0.00
2009,03,02,04,42,0.00
2009,03,02,04,43,0.00
2009,03,02,04,44,0.00
2009,03,02,04,45,0.00
2009,03,02,04,46,0.00
2009,03,02,04,47,0.00
2009,03,02,04,48,0.00
2009,03,02,04,49,0.00
2009,03,02,04,50,0.00
2009,03,02,04,51,0.00
2009,03,02,04,52,0.00
2009,03,02,04,53,0.00
2009,03,02,04,54,0.00
2009,03,02,04,55,0.00
2009,03,02,04,56,0.00
2009,03,02,04,57,0.00
2009,03,02,04,58,0.00
2009,03,02,04,59,0.00
2009,03,02,05,00,0.00
2009,03,02,05,01,0.00
2009,03,02,05,02,0.00
2009,03,02,05,03,0.00
2009,03,02,05,04,0.00
2009,03,02,05,05,0.00
2009,03,02,05,06,0.00
2009,03,02,05,07,0.00
2009,03,02,05,08,0.00
2009,03,02,05,09,0.00
2009,03,02,05,10,0.00
2009,03,02,05,11,0.00
2009,03,02,05,12,0.00
2009,03,02,05,13,0.00
2009,03,02,05,14,0.00
2009,03,02,05,15,0.00
2009,03,02,05,16,0.00
2009,03,02,05,17,0.00
2009,03,02,05,18,0.00
2009,03,02,05,19,0.00
2009,03,02,05,20,0.00
2009,03,02,05,21,0.00
2009,03,02,05,22,0.00
2009,03,02,05,23,0.00
2009,03,02,05,24,0.00
2009,03,02,05,25,0.00
2009,03,02,05,26,0.00
2009,03,02,05,27,0.00
2009,03,02,05,28,0.00
2009,03,02,05,29,0.00
2009,03,02,05,30,0.00
2009,03,02,05,31,0.00
2009,03,02,05,32,0.00
2009,03,02,05,33,0.00
2009,03,02,05,34,0.00
2009,03,02,05,35,0.00
2009,03,02,05,36,0.00
2009,03,02,05,37,0.00
2009,03,02,05,38,0.00
2009,03,02,05,39,0.00
2009,03,02,05,40,0.00
2009,03,02,05,41,0.00
2009,03,02,05,42,0.00
2009,03,02,05,43,0.00
2009,03,02,05,44,0.00
2009,03,02,05,45,0.00
2009,03,02,05,46,0.00
2009,03,02,05,47,0.00
2009,03,02,05,48,0.00
2009,03,02,05,49,0.00
2009,03,02,05,50,0.00
2009,03,02,05,51,0.00
2009,03,02,05,52,0.00
2009,03,02,05,53,0.00
2009,03,02,05,54,0.00
2009,03,02,05,55,0.00
2009,03,02,05,56,0.00
2009,03,02,05,57,0.00
2009,03,02,05,58,0.00
2009,03,02,05,59,0.00
2009,03,02,06,00,0.00
2009,03,02,06,01,0.00
2009,03,02,06,02,0.00
2009,03,02,06,03,0.00
2009,03,02,06,04,0.00
2009,03,02,06,05,0.00
2009,03,02,06,06,0.00
2009,03,02,06,07,0.00
2009,03,02,06,08,0.00
2009,03,02,06,09,0.00
2009,03,02,06,10,0.00
2009,03,02,06,11,0.00
2009,03,02,06,12,0.00
2009,03,02,06,13,0.00
2009,03,02,06,14,0.00
2009,03,02,06,15,0.00
2009,03,02,06,16,0.00
2009,03,02,06,17,0.00
2009,03,02,06,18,0.00
2009,03,02,06,19,0.00
2009,03,02,06,20,0.00
2009,03,02,06,21,0.00
2009,03,02,06,22,0.00
2009,03,02,06,23,0.00
2009,03,02,06,24,0.00
2009,03,02,06,25,0.00
2009,03,02,06,26,0.00
2009,03,02,06,27,0.00
2009,03,02,06,28,0.00
2009,03,02,06,29,0.00
2009,03,02,06,30,0.00
2009,03,02,06,31,0.00
2009,03,02,06,32,0.00
2009,03,02,06,33,0.00
2009,03,02,06,34,0.00
2009,03,02,06,35,0.00
2009,03,02,06,36,0.00
2009,03,02,06,37,0.00
2009,03,02,06,38,0.00
2009,03,02,06,39,0.00
2009,03,02,06,40,0.00
2009,03,02,06,41,0.00
2009,03,02,06,42,0.00
2009,03,02,06,43,0.00
2009,03,02,06,44,0.00
2009,03,02,06,45,0.00
2009,03,02,06,46,0.00
2009,03,02,06,47,0.00
2009,03,02,06,48,0.00
2009,03,02,06,49,0.00
2009,03,02,06,50,0.00
2009,03,02,06,51,0.00
2009,03,02,06,52,0.00
2009,03,02,06,53,0.00
2009,03,02,06,54,0.00
2009,03,02,06,55,0.00
2009,03,02,06,56,0.00
2009,03,02,06,57,0.00
2009,03,02,06,58,0.00
2009,03,02,06,59,0.00
2009,03,02,07,00,0.00
2009,03,02,07,01,0.00
2009,03,02,07,02,0.00
2009,03,02,07,03,0.00
2009,03,02,07,04,0.00
2009,03,02,07,05,0.00
2009,03,02,07,06,3.70
2009,03,02,07,07,5.00
2009,03,02,07,08,5.30
2009,03,02,07,09,7.00
2009,03,02,07,10,7.00
2009,03,02,07,11,7.00
2009,03,02,07,12,8.40
2009,03,02,07,13,9.00
2009,03,02,07,14,9.00
2009,03,02,07,15,9.00
2009,03,02,07,16,9.00
2009,03,02,07,17,10.20
2009,03,02,07,18,11.00
2009,03,02,07,19,11.00
2009,03,02,07,20,11.00
2009,03,02,07,21,11.00
2009,03,02,07,22,11.00
2009,03,02,07,23,11.00
2009,03,02,07,24,11.80
2009,03,02,07,25,12.00
2009,03,02,07,26,12.00
2009,03,02,07,27,12.00
2009,03,02,07,28,13.00
2009,03,02,07,29,14.00
2009,03,02,07,30,15.60
2009,03,02,07,31,17.90
2009,03,02,07,32,20.20
2009,03,02,07,33,26.80
2009,03,02,07,34,32.50
2009,03,02,07,35,33.70
2009,03,02,07,36,32.20
2009,03,02,07,37,29.90
2009,03,02,07,38,27.50
2009,03,02,07,39,26.00
2009,03,02,07,40,26.00
2009,03,02,07,41,26.00
2009,03,02,07,42,26.00
2009,03,02,07,43,28.40
2009,03,02,07,44,32.80
2009,03,02,07,45,37.00
2009,03,02,07,46,43.30
2009,03,02,07,47,48.10
2009,03,02,07,48,50.70
2009,03,02,07,49,53.20
2009,03,02,07,50,54.00
2009,03,02,07,51,53.60
2009,03,02,07,52,53.00
2009,03,02,07,53,53.00
2009,03,02,07,54,51.20
2009,03,02,07,55,49.00
2009,03,02,07,56,49.00
2009,03,02,07,57,48.10
2009,03,02,07,58,45.20
2009,03,02,07,59,42.50
2009,03,02,08,00,41.90
2009,03,02,08,01,39.80
2009,03,02,08,02,39.00
2009,03,02,08,03,39.00
2009,03,02,08,04,39.60
2009,03,02,08,05,41.60
2009,03,02,08,06,42.00
2009,03,02,08,07,42.00
2009,03,02,08,08,42.00
2009,03,02,08,09,42.00
2009,03,02,08,10,42.00
2009,03,02,08,11,42.00
2009,03,02,08,12,45.70
2009,03,02,08,13,48.80
2009,03,02,08,14,55.50
2009,03,02,08,15,60.10
2009,03,02,08,16,62.00
2009,03,02,08,17,66.00
2009,03,02,08,18,63.60
2009,03,02,08,19,68.80
2009,03,02,08,20,75.20
2009,03,02,08,21,74.40
2009,03,02,08,22,78.30
2009,03,02,08,23,97.20
2009,03,02,08,24,85.50
2009,03,02,08,25,81.50
2009,03,02,08,26,97.80
2009,03,02,08,27,132.70
2009,03,02,08,28,172.10
2009,03,02,08,29,199.40
2009,03,02,08,30,176.40
2009,03,02,08,31,164.60
2009,03,02,08,32,181.20
2009,03,02,08,33,203.80
2009,03,02,08,34,181.00
2009,03,02,08,35,125.40
2009,03,02,08,36,99.80
2009,03,02,08,37,76.30
2009,03,02,08,38,78.80
2009,03,02,08,39,89.40
2009,03,02,08,40,106.80
2009,03,02,08,41,106.00
2009,03,02,08,42,107.00
2009,03,02,08,43,108.40
2009,03,02,08,44,111.90
2009,03,02,08,45,109.40
2009,03,02,08,46,105.50
2009,03,02,08,47,109.30
2009,03,02,08,48,116.40
2009,03,02,08,49,121.50
2009,03,02,08,50,129.00
2009,03,02,08,51,126.80
2009,03,02,08,52,109.80
2009,03,02,08,53,108.40
2009,03,02,08,54,108.80
2009,03,02,08,55,123.70
2009,03,02,08,56,164.50
2009,03,02,08,57,233.90
2009,03,02,08,58,174.80
2009,03,02,08,59,167.20
2009,03,02,09,00,198.50
2009,03,02,09,01,225.00
2009,03,02,09,02,212.80
2009,03,02,09,03,207.60
2009,03,02,09,04,233.20
2009,03,02,09,05,234.80
2009,03,02,09,06,216.00
2009,03,02,09,07,258.20
2009,03,02,09,08,266.20
2009,03,02,09,09,189.30
2009,03,02,09,10,158.70
2009,03,02,09,11,151.80
2009,03,02,09,12,158.10
2009,03,02,09,13,163.00
2009,03,02,09,14,160.00
2009,03,02,09,15,146.80
2009,03,02,09,16,142.00
2009,03,02,09,17,151.60
2009,03,02,09,18,159.00
2009,03,02,09,19,180.30
2009,03,02,09,20,195.00
2009,03,02,09,21,209.20
2009,03,02,09,22,214.00
2009,03,02,09,23,218.60
2009,03,02,09,24,245.50
2009,03,02,09,25,255.00
2009,03,02,09,26,228.40
2009,03,02,09,27,206.00
2009,03,02,09,28,202.00
2009,03,02,09,29,202.00
2009,03,02,09,30,205.70
2009,03,02,09,31,205.60
2009,03,02,09,32,213.30
2009,03,02,09,33,227.40
2009,03,02,09,34,261.70
2009,03,02,09,35,542.50
2009,03,02,09,36,551.50
2009,03,02,09,37,548.50
2009,03,02,09,38,531.80
2009,03,02,09,39,507.60
2009,03,02,09,40,491.20
2009,03,02,09,41,484.50
2009,03,02,09,42,490.10
2009,03,02,09,43,471.00
2009,03,02,09,44,446.50
2009,03,02,09,45,436.00
2009,03,02,09,46,436.00
2009,03,02,09,47,436.00
2009,03,02,09,48,317.70
2009,03,02,09,49,153.90
2009,03,02,09,50,182.40
2009,03,02,09,51,168.10
2009,03,02,09,52,207.00
2009,03,02,09,53,207.00
2009,03,02,09,54,207.00
2009,03,02,09,55,208.20
2009,03,02,09,56,239.80
2009,03,02,09,57,250.00
2009,03,02,09,58,552.00
2009,03,02,09,59,464.40
2009,03,02,10,00,260.00
2009,03,02,10,01,470.00
2009,03,02,10,02,610.00
2009,03,02,10,03,378.50
2009,03,02,10,04,436.00
2009,03,02,10,05,495.10
2009,03,02,10,06,605.00
2009,03,02,10,07,335.20
2009,03,02,10,08,190.00
2009,03,02,10,09,212.30
2009,03,02,10,10,636.00
2009,03,02,10,11,524.00
2009,03,02,10,12,304.00
2009,03,02,10,13,244.10
2009,03,02,10,14,227.00
2009,03,02,10,15,229.70
2009,03,02,10,16,243.80
2009,03,02,10,17,206.40
2009,03,02,10,18,189.90
2009,03,02,10,19,189.30
2009,03,02,10,20,222.00
2009,03,02,10,21,230.00
2009,03,02,10,22,344.00
2009,03,02,10,23,686.00
2009,03,02,10,24,504.00
2009,03,02,10,25,355.00
2009,03,02,10,26,593.80
2009,03,02,10,27,683.70
2009,03,02,10,28,650.00
2009,03,02,10,29,650.00
2009,03,02,10,30,650.00
2009,03,02,10,31,489.00
2009,03,02,10,32,360.50
2009,03,02,10,33,317.00
2009,03,02,10,34,273.30
2009,03,02,10,35,233.40
2009,03,02,10,36,212.80
2009,03,02,10,37,209.00
2009,03,02,10,38,209.00
2009,03,02,10,39,223.40
2009,03,02,10,40,271.50
2009,03,02,10,41,241.00
2009,03,02,10,42,230.00
2009,03,02,10,43,248.80
2009,03,02,10,44,226.30
2009,03,02,10,45,183.20
2009,03,02,10,46,153.60
2009,03,02,10,47,152.00
2009,03,02,10,48,158.20
2009,03,02,10,49,151.80
2009,03,02,10,50,138.60
2009,03,02,10,51,142.70
2009,03,02,10,52,153.60
2009,03,02,10,53,165.50
2009,03,02,10,54,166.40
2009,03,02,10,55,165.00
2009,03,02,10,56,165.50
2009,03,02,10,57,149.00
2009,03,02,10,58,135.00
2009,03,02,10,59,136.70
2009,03,02,11,00,148.80
2009,03,02,11,01,160.20
2009,03,02,11,02,172.40
2009,03,02,11,03,176.50
2009,03,02,11,04,171.60
2009,03,02,11,05,162.00
2009,03,02,11,06,173.20
2009,03,02,11,07,202.40
2009,03,02,11,08,213.80
2009,03,02,11,09,199.20
2009,03,02,11,10,182.90
2009,03,02,11,11,169.90
2009,03,02,11,12,158.00
2009,03,02,11,13,148.90
2009,03,02,11,14,145.40
2009,03,02,11,15,141.70
2009,03,02,11,16,141.40
2009,03,02,11,17,145.40
2009,03,02,11,18,155.40
2009,03,02,11,19,165.60
2009,03,02,11,20,174.80
2009,03,02,11,21,180.80
2009,03,02,11,22,191.80
2009,03,02,11,23,213.80
2009,03,02,11,24,239.60
2009,03,02,11,25,271.00
2009,03,02,11,26,362.00
2009,03,02,11,27,424.60
2009,03,02,11,28,541.00
2009,03,02,11,29,537.80
2009,03,02,11,30,536.00
2009,03,02,11,31,268.40
2009,03,02,11,32,232.00
2009,03,02,11,33,339.80
2009,03,02,11,34,540.00
2009,03,02,11,35,419.60
2009,03,02,11,36,324.80
2009,03,02,11,37,313.70
2009,03,02,11,38,298.50
2009,03,02,11,39,293.90
2009,03,02,11,40,294.30
2009,03,02,11,41,279.60
2009,03,02,11,42,256.60
2009,03,02,11,43,235.80
2009,03,02,11,44,222.20
2009,03,02,11,45,210.60
2009,03,02,11,46,203.80
2009,03,02,11,47,203.40
2009,03,02,11,48,208.00
2009,03,02,11,49,216.10
2009,03,02,11,50,221.80
2009,03,02,11,51,233.40
2009,03,02,11,52,243.60
2009,03,02,11,53,235.60
2009,03,02,11,54,224.40
2009,03,02,11,55,215.70
2009,03,02,11,56,214.60
2009,03,02,11,57,214.60
2009,03,02,11,58,204.60
2009,03,02,11,59,188.70
2009,03,02,12,00,173.90
2009,03,02,12,01,164.40
2009,03,02,12,02,159.90
2009,03,02,12,03,156.00
2009,03,02,12,04,162.60
2009,03,02,12,05,177.50
2009,03,02,12,06,185.50
2009,03,02,12,07,186.00
2009,03,02,12,08,189.10
2009,03,02,12,09,200.50
2009,03,02,12,10,214.40
2009,03,02,12,11,227.50
2009,03,02,12,12,248.10
2009,03,02,12,13,271.50
2009,03,02,12,14,289.40
2009,03,02,12,15,300.50
2009,03,02,12,16,339.80
2009,03,02,12,17,359.00
2009,03,02,12,18,388.80
2009,03,02,12,19,643.00
2009,03,02,12,20,595.40
2009,03,02,12,21,578.10
2009,03,02,12,22,564.20
2009,03,02,12,23,559.40
2009,03,02,12,24,551.50
2009,03,02,12,25,523.70
2009,03,02,12,26,530.80
2009,03,02,12,27,530.40
2009,03,02,12,28,604.00
2009,03,02,12,29,635.00
2009,03,02,12,30,647.80
2009,03,02,12,31,670.80
2009,03,02,12,32,643.40
2009,03,02,12,33,654.50
2009,03,02,12,34,596.80
2009,03,02,12,35,580.00
2009,03,02,12,36,378.10
2009,03,02,12,37,313.50
2009,03,02,12,38,295.00
2009,03,02,12,39,308.80
2009,03,02,12,40,387.80
2009,03,02,12,41,411.00
2009,03,02,12,42,453.30
2009,03,02,12,43,693.00
2009,03,02,12,44,562.50
2009,03,02,12,45,491.40
2009,03,02,12,46,460.00
2009,03,02,12,47,432.60
2009,03,02,12,48,444.80
2009,03,02,12,49,463.80
2009,03,02,12,50,402.60
2009,03,02,12,51,398.60
2009,03,02,12,52,396.20
2009,03,02,12,53,410.90
2009,03,02,12,54,425.00
2009,03,02,12,55,419.80
2009,03,02,12,56,409.50
2009,03,02,12,57,408.00
2009,03,02,12,58,532.80
2009,03,02,12,59,496.60
2009,03,02,13,00,464.80
2009,03,02,13,01,461.20
2009,03,02,13,02,471.50
2009,03,02,13,03,483.60
2009,03,02,13,04,452.80
2009,03,02,13,05,491.10
2009,03,02,13,06,470.20
2009,03,02,13,07,448.30
2009,03,02,13,08,431.30
2009,03,02,13,09,425.00
2009,03,02,13,10,415.40
2009,03,02,13,11,378.90
2009,03,02,13,12,375.80
2009,03,02,13,13,363.20
2009,03,02,13,14,407.30
2009,03,02,13,15,442.60
2009,03,02,13,16,427.10
2009,03,02,13,17,409.00
2009,03,02,13,18,420.10
2009,03,02,13,19,447.60
2009,03,02,13,20,450.60
2009,03,02,13,21,454.00
2009,03,02,13,22,463.90
2009,03,02,13,23,449.80
2009,03,02,13,24,497.10
2009,03,02,13,25,503.00
2009,03,02,13,26,447.20
2009,03,02,13,27,397.40
2009,03,02,13,28,391.10
2009,03,02,13,29,440.40
2009,03,02,13,30,438.20
2009,03,02,13,31,418.00
2009,03,02,13,32,427.10
2009,03,02,13,33,447.80
2009,03,02,13,34,461.90
2009,03,02,13,35,441.80
2009,03,02,13,36,422.20
2009,03,02,13,37,414.00
2009,03,02,13,38,406.50
2009,03,02,13,39,390.60
2009,03,02,13,40,389.00
2009,03,02,13,41,399.00
2009,03,02,13,42,384.20
2009,03,02,13,43,358.10
2009,03,02,13,44,348.80
2009,03,02,13,45,329.00
2009,03,02,13,46,314.20
2009,03,02,13,47,298.50
2009,03,02,13,48,296.20
2009,03,02,13,49,290.40
2009,03,02,13,50,281.40
2009,03,02,13,51,286.60
2009,03,02,13,52,285.80
2009,03,02,13,53,289.40
2009,03,02,13,54,294.70
2009,03,02,13,55,302.90
2009,03,02,13,56,306.90
2009,03,02,13,57,316.60
2009,03,02,13,58,315.00
2009,03,02,13,59,307.50
2009,03,02,14,00,301.80
2009,03,02,14,01,315.00
2009,03,02,14,02,320.20
2009,03,02,14,03,301.70
2009,03,02,14,04,338.80
2009,03,02,14,05,354.20
2009,03,02,14,06,371.50
2009,03,02,14,07,387.90
2009,03,02,14,08,381.50
2009,03,02,14,09,383.80
2009,03,02,14,10,376.80
2009,03,02,14,11,386.00
2009,03,02,14,12,367.70
2009,03,02,14,13,324.30
2009,03,02,14,14,259.20
2009,03,02,14,15,218.50
2009,03,02,14,16,194.60
2009,03,02,14,17,181.10
2009,03,02,14,18,168.50
2009,03,02,14,19,160.90
2009,03,02,14,20,167.20
2009,03,02,14,21,209.90
2009,03,02,14,22,319.50
2009,03,02,14,23,391.80
2009,03,02,14,24,399.00
2009,03,02,14,25,366.10
2009,03,02,14,26,346.90
2009,03,02,14,27,378.80
2009,03,02,14,28,433.80
2009,03,02,14,29,423.00
2009,03,02,14,30,387.50
2009,03,02,14,31,347.10
2009,03,02,14,32,350.00
2009,03,02,14,33,364.00
2009,03,02,14,34,357.80
2009,03,02,14,35,376.60
2009,03,02,14,36,387.00
2009,03,02,14,37,367.40
2009,03,02,14,38,359.90
2009,03,02,14,39,339.30
2009,03,02,14,40,341.00
2009,03,02,14,41,332.90
2009,03,02,14,42,310.40
2009,03,02,14,43,298.20
2009,03,02,14,44,289.90
2009,03,02,14,45,272.00
2009,03,02,14,46,262.70
2009,03,02,14,47,261.80
2009,03,02,14,48,262.80
2009,03,02,14,49,256.80
2009,03,02,14,50,238.40
2009,03,02,14,51,228.20
2009,03,02,14,52,224.30
2009,03,02,14,53,223.00
2009,03,02,14,54,225.50
2009,03,02,14,55,228.50
2009,03,02,14,56,241.60
2009,03,02,14,57,249.00
2009,03,02,14,58,263.30
2009,03,02,14,59,261.00
2009,03,02,15,00,269.50
2009,03,02,15,01,287.80
2009,03,02,15,02,282.50
2009,03,02,15,03,257.00
2009,03,02,15,04,254.40
2009,03,02,15,05,250.50
2009,03,02,15,06,234.10
2009,03,02,15,07,216.20
2009,03,02,15,08,204.50
2009,03,02,15,09,200.50
2009,03,02,15,10,187.90
2009,03,02,15,11,182.80
2009,03,02,15,12,178.90
2009,03,02,15,13,174.60
2009,03,02,15,14,170.60
2009,03,02,15,15,166.40
2009,03,02,15,16,162.80
2009,03,02,15,17,157.60
2009,03,02,15,18,155.30
2009,03,02,15,19,153.30
2009,03,02,15,20,152.70
2009,03,02,15,21,151.00
2009,03,02,15,22,151.00
2009,03,02,15,23,149.30
2009,03,02,15,24,143.50
2009,03,02,15,25,138.90
2009,03,02,15,26,130.20
2009,03,02,15,27,120.80
2009,03,02,15,28,115.10
2009,03,02,15,29,114.00
2009,03,02,15,30,113.20
2009,03,02,15,31,113.30
2009,03,02,15,32,118.40
2009,03,02,15,33,117.90
2009,03,02,15,34,113.50
2009,03,02,15,35,110.40
2009,03,02,15,36,105.80
2009,03,02,15,37,104.10
2009,03,02,15,38,104.80
2009,03,02,15,39,109.80
2009,03,02,15,40,114.00
2009,03,02,15,41,124.40
2009,03,02,15,42,131.60
2009,03,02,15,43,134.90
2009,03,02,15,44,134.80
2009,03,02,15,45,131.40
2009,03,02,15,46,125.90
2009,03,02,15,47,123.60
2009,03,02,15,48,120.60
2009,03,02,15,49,116.00
2009,03,02,15,50,114.00
2009,03,02,15,51,115.70
2009,03,02,15,52,123.50
2009,03,02,15,53,125.90
2009,03,02,15,54,123.40
2009,03,02,15,55,121.00
2009,03,02,15,56,122.20
2009,03,02,15,57,124.20
2009,03,02,15,58,118.80
2009,03,02,15,59,109.40
2009,03,02,16,00,102.80
2009,03,02,16,01,89.80
2009,03,02,16,02,80.90
2009,03,02,16,03,72.70
2009,03,02,16,04,64.80
2009,03,02,16,05,55.20
2009,03,02,16,06,47.80
2009,03,02,16,07,46.00
2009,03,02,16,08,46.00
2009,03,02,16,09,46.50
2009,03,02,16,10,50.60
2009,03,02,16,11,60.40
2009,03,02,16,12,74.90
2009,03,02,16,13,81.00
2009,03,02,16,14,79.60
2009,03,02,16,15,75.50
2009,03,02,16,16,72.70
2009,03,02,16,17,73.60
2009,03,02,16,18,74.00
2009,03,02,16,19,74.00
2009,03,02,16,20,74.00
2009,03,02,16,21,75.00
2009,03,02,16,22,76.00
2009,03,02,16,23,72.80
2009,03,02,16,24,66.80
2009,03,02,16,25,62.70
2009,03,02,16,26,62.00
2009,03,02,16,27,62.50
2009,03,02,16,28,63.00
2009,03,02,16,29,63.00
2009,03,02,16,30,62.70
2009,03,02,16,31,59.50
2009,03,02,16,32,56.40
2009,03,02,16,33,53.50
2009,03,02,16,34,51.60
2009,03,02,16,35,49.30
2009,03,02,16,36,46.80
2009,03,02,16,37,45.50
2009,03,02,16,38,42.40
2009,03,02,16,39,39.50
2009,03,02,16,40,36.20
2009,03,02,16,41,35.00
2009,03,02,16,42,37.80
2009,03,02,16,43,44.20
2009,03,02,16,44,51.20
2009,03,02,16,45,57.60
2009,03,02,16,46,63.80
2009,03,02,16,47,65.20
2009,03,02,16,48,69.00
2009,03,02,16,49,68.40
2009,03,02,16,50,65.20
2009,03,02,16,51,60.00
2009,03,02,16,52,52.50
2009,03,02,16,53,46.30
2009,03,02,16,54,41.40
2009,03,02,16,55,38.30
2009,03,02,16,56,36.10
2009,03,02,16,57,37.60
2009,03,02,16,58,43.00
2009,03,02,16,59,48.60
2009,03,02,17,00,51.40
2009,03,02,17,01,52.30
2009,03,02,17,02,49.90
2009,03,02,17,03,49.00
2009,03,02,17,04,49.00
2009,03,02,17,05,49.40
2009,03,02,17,06,56.60
2009,03,02,17,07,67.20
2009,03,02,17,08,76.80
2009,03,02,17,09,86.60
2009,03,02,17,10,80.10
2009,03,02,17,11,69.70
2009,03,02,17,12,64.80
2009,03,02,17,13,57.20
2009,03,02,17,14,54.90
2009,03,02,17,15,54.00
2009,03,02,17,16,54.00
2009,03,02,17,17,53.00
2009,03,02,17,18,53.00